Location: Palomar Mountain Lodge
(33.3110°N, 116.8495°W)
Time: 01:12:05
(UTC-07:00)

Daily predictions for brighter satellites

Satellite Brightness Start Highest point End
(mag) Time Altitude Azimuth Time Altitude Azimuth Time Altitude Azimuth
CENTAUR R/B 4.4 03:17:17 23° N 03:17:17 23° N 03:19:53 10° NNE
Cosmos 2360 Rocket 3.8 03:39:41 31° NE 03:39:41 31° NE 03:42:49 10° NE
Okean O Rocket 4.1 03:45:20 10° NE 03:47:17 19° ENE 03:47:17 19° ENE
FALCON 9 R/B 4.4 04:00:25 50° W 04:05:39 87° SSW 04:57:15 10° ESE
Cosmos 2322 4.2 04:11:52 58° NE 04:11:52 58° NE 04:16:26 10° NNE
ADEOS II 3.3 04:06:01 10° NNE 04:10:53 38° E 04:11:50 35° ESE
Lacrosse 5 3.6 04:14:13 24° SE 04:14:13 24° SE 04:16:16 10° SE
Lacrosse 4 Rocket 3.7 04:24:47 10° N 04:28:14 24° ENE 04:31:43 10° ESE
Tiangong 2 4.3 04:31:20 12° NE 04:31:20 12° NE 04:31:53 10° NE
Cosmos 1536 Rocket 4.3 04:31:52 52° NE 04:31:52 52° NE 04:35:25 10° NNE
Cosmos 2208 Rocket 4.4 04:33:39 50° SSE 04:34:49 63° ESE 04:40:13 10° NNE
CZ-4B DEB 4.3 04:35:05 10° NNE 04:40:40 76° ESE 04:42:36 42° S
CZ-4B R/B 3.2 04:39:12 10° NNE 04:44:51 83° ESE 04:46:53 41° S
Aureole 3 Rocket 4.4 04:44:21 47° SW 04:46:29 65° W 04:55:27 10° N
IRAS Rocket 4.2 04:42:48 10° NNE 04:48:22 83° ESE 04:50:49 35° S
Cosmos 2322 Rocket 4.3 04:51:44 13° NW 04:51:44 13° NW 04:52:55 10° NNW
GOES 2 Rocket 3.8 04:50:38 47° S 04:50:55 47° S 04:56:36 10° E
PSLV R/B 3.4 04:47:17 10° NNE 04:51:38 89° E 04:51:47 84° S
Cosmos 2327 Rocket 4.4 04:45:37 10° NNW 04:51:49 66° W 04:56:01 21° S
SL-16 R/B 4.3 04:55:36 13° NW 04:55:36 13° NW 04:56:53 10° NNW
Cosmos 2237 4.2 04:53:26 57° WSW 04:54:17 65° WNW 04:59:59 10° NNE
ISS -2.8 04:57:03 46° ENE 04:57:03 46° ENE 04:59:46 10° ESE
Nadezhda 1 Rocket 3.9 04:55:30 47° SW 04:56:59 60° W 05:02:58 10° N
Cosmos 1610 Rocket 4.4 04:51:32 10° N 04:57:49 83° W 05:04:09 10° S
ERS-2 3.3 04:54:27 10° NNE 04:57:59 43° E 04:59:59 22° SSE
COSMOS 2428 2.6 04:56:23 47° SW 04:58:06 78° WNW 05:03:48 10° NNE
CZ-2C R/B 3.9 04:53:48 10° SSE 04:58:24 73° ENE 05:02:56 10° N
USA 215 3.3 04:54:57 10° SE 05:01:30 82° NE 05:08:04 10° NW
Cosmos 2219 Rocket 2.5 05:00:19 16° S 05:04:41 64° ESE 05:10:12 10° NNE
USA 229 DEB 3.8 05:03:20 19° SSW 05:08:23 74° ESE 05:15:17 10° NE
USA 229 3.8 05:03:23 19° SSW 05:08:30 73° ESE 05:15:23 10° NE
Meteor 1-19 Rocket 4.2 05:05:09 10° S 05:10:44 88° E 05:16:27 10° N
Cosmos 1570 Rocket 4.2 05:11:44 41° WSW 05:12:51 48° WNW 05:17:54 10° N
Cosmos 2074 Rocket 4.4 05:08:45 10° NNW 05:14:24 38° W 05:16:33 29° SW
Cosmos 2341 Rocket 4.2 05:08:46 10° N 05:15:01 74° E 05:21:11 10° SSE
IRS-1C Rocket 4.4 05:12:32 10° N 05:17:28 43° WNW 05:19:01 34° WSW
Cosmos 1844 Rocket 3.3 05:12:27 10° NNW 05:17:56 57° ENE 05:23:22 10° SE
Cosmos 2360 Rocket 3.5 05:21:28 21° WNW 05:21:39 21° WNW 05:25:50 10° N
Cosmos 468 Rocket 4.2 05:16:57 10° S 05:22:03 71° ESE 05:27:14 10° NNE
Okean O Rocket 2.8 05:21:35 10° NNW 05:24:46 24° WNW 05:24:46 24° WNW
Cosmos 405 Rocket 4.0 05:21:20 10° SSE 05:25:13 44° E 05:29:04 10° NNE
Cosmos 807 4.4 05:24:39 35° SSW 05:25:53 64° W 05:29:47 10° N
BREEZE-M DEB (TANK) 3.5 05:25:06 30° W 05:26:53 49° NNW 05:38:55 10° NE
Cosmos 2278 Rocket 4.3 05:23:27 10° N 05:28:17 28° ENE 05:33:06 10° ESE
Meteor 2-4 Rocket 3.7 05:23:19 10° S 05:28:59 90° W 05:34:31 10° N
Cosmos 2237 Rocket 2.7 05:24:09 10° S 05:29:42 60° ESE 05:35:17 10° NNE
OAO 3 Copernicus 4.3 05:30:55 26° W 05:33:43 74° N 05:38:44 10° E
Okean-O 2.5 05:31:09 10° N 05:35:35 76° WNW 05:39:59 10° SSW
Cosmos 1666 2.6 05:33:25 10° N 05:37:17 88° W 05:41:09 10° S
ASTRO E2 3.9 05:37:41 23° SW 05:38:48 27° SSW 05:42:12 10° SE
Feng Yun 1-1 Rocket 4.3 05:33:33 10° N 05:39:24 78° WNW 05:45:05 10° SSW
Cosmos 1743 3.0 05:36:06 10° NNW 05:39:46 43° W 05:43:24 10° SSW
Meteor 1-31 Rocket 2.7 05:36:52 10° N 05:40:35 56° WNW 05:44:17 10° SSW
Cosmos 1025 Rocket 2.9 05:39:05 10° SSW 05:43:24 73° W 05:47:47 10° N
EO 1 Del DPAF 4.5 05:44:46 21° W 05:44:46 21° W 05:47:22 10° NW
Cosmos 2285 Rocket 4.0 05:38:04 10° SSW 05:44:28 74° WNW 05:50:55 10° NNE
DELTA 2 R/B (1) 4.1 05:42:06 18° WNW 05:46:02 48° N 05:51:24 10° ENE
Cosmos 1892 Rocket 4.3 05:42:01 10° S 05:46:13 54° E 05:50:27 10° NNE
Cosmos 2333 Rocket 2.2 05:40:38 10° SSW 05:46:16 69° WNW 05:51:59 10° NNE
ATLAS 5 CENTAUR R/B 3.9 05:44:17 10° NNW 05:49:58 39° NE 05:56:02 10° ESE
ADEOS II 3.3 05:46:23 10° NNW 05:50:18 22° WNW 05:52:47 16° WSW
Cosmos 1763 Rocket 3.7 05:47:49 10° S 05:52:49 70° ESE 05:57:53 10° NNE
Lacrosse 5 3.4 05:53:34 15° WSW 05:53:42 15° WSW 05:56:27 10° SSW
NOSS 0 Rocket 3.9 05:49:06 10° SSW 05:55:14 68° WNW 06:01:22 10° NNE
Cosmos 1937 Rocket 4.3 05:50:34 10° N 05:55:48 56° ENE 06:00:58 10° SSE
USA 116 4.1 05:52:22 10° S 05:56:09 46° W 06:00:28 10° NNW
Hubble Space Telescope 2.7 05:54:23 10° SSW 05:57:34 22° SSE 06:00:46 10° ESE
NOAA 6 4.0 05:54:26 10° N 05:59:32 73° WNW 06:04:36 10° SSW
Cosmos 1959 Rocket 4.5 05:57:38 10° N 06:03:46 89° W 06:09:54 10° S
Aureole 2 Rocket 2.6 06:00:38 10° SSW 06:04:22 54° WNW 06:07:49 10° N
Cosmos 841 Rocket 3.7 05:59:50 10° S 06:04:58 74° ESE 06:10:06 10° NNE
Cosmos 2298 Rocket 4.1 06:00:30 10° NNW 06:05:51 89° ENE 06:11:11 10° SSE
Cosmos 1437 2.9 06:03:05 10° SSW 06:06:16 49° W 06:09:27 10° N
Lacrosse 4 Rocket 2.5 06:03:27 10° NW 06:06:48 23° WSW 06:10:13 10° SSW
Tiangong 2 2.5 06:04:17 10° NW 06:07:11 34° NNE 06:10:05 10° E
Cosmos 1814 Rocket 4.2 06:07:00 10° SW 06:12:03 50° WNW 06:17:04 10° N
Iridium 2 3.9 06:10:36 10° NNW 06:14:16 47° W 06:17:56 10° SSW
Cosmos 2366 rocket 4.0 06:08:46 10° N 06:15:08 82° W 06:21:28 10° S
OTV 4 2.2 06:13:55 10° SSW 06:16:15 25° SSE 06:18:36 10° E
SKYMED 2 3.5 06:15:33 10° S 06:19:51 72° WSW 06:24:11 10° NNW
Cosmos 1844 3.9 06:14:36 10° NNW 06:20:09 52° WSW 06:25:37 10° S
Cosmos 2058 Rocket 3.2 06:18:25 10° N 06:22:55 83° E 06:27:20 10° S
SL-16 R/B 2.5 06:19:05 10° SSW 06:24:42 74° ESE 06:30:21 10° NNE
Geosat 4.2 06:20:36 10° SSE 06:25:36 81° ENE 06:30:39 10° NNW
CZ-2C R/B 4.0 06:21:17 10° NNE 06:26:14 44° E 06:31:06 10° S
